Flag for U.S.A. Weather past 2 weeks in Fort Worth, Texas, U.S.A.

Now
78 °F

Passing clouds.


Feels Like: 81 °F
Forecast: 78 / 97 °F
Wind: 16 mph from South

Location: Meacham International Airport

Current Time: Sep 1, 2014 at 6:46:22 AM

Latest Report: Sep 1, 2014 at 5:53 AM


Visibility: 10 mi

Pressure: 29.84 "Hg

Humidity: 82%

Dew point: 72 °F

Location of Fort WorthLocation

Historic Weather in Fort Worth — Graph

°F

Fort Worth temperature yesterday

Maximum temperature yesterday: 99 °F (at 3:53 PM)
Minimum temperature yesterday: 78 °F (at 6:53 AM)
Average temperature yesterday: 87 °F

Past Weeks' High & Low Weather Summary

 TemperatureHumidityPressure
High102 °F (Aug 22, 3:53 PM)93% (Aug 29, 6:00 AM)30.03 "Hg (Aug 29, 6:00 AM)
Low71 °F (Aug 29, 4:53 AM)23% (Aug 22, 4:53 PM)29.79 "Hg (Aug 28, 7:53 PM)
Average87 °F54%29.90 "Hg
* Reported Aug 17 5:53 AM — Sep 1 5:53 AM, Fort Worth, Weather by CustomWeather, © 2014

Note: Actual official high and low records may vary slightly from our data, if they occured in-between our weather recording intervals... More about our weather records

Advertising

Fort Worth weather history for previous 24 hours

 ConditionsComfort  
Time TempWeatherWind HumidityBarometerVisibility
5:53 AM
Sep 1
78 °FPassing clouds.16 mph82%29.84 "Hg10 mi
4:53 AM79 °FClear.15 mph77%29.83 "Hg10 mi
3:53 AM80 °FClear.17 mph71%29.84 "Hg10 mi
2:53 AM81 °FClear.20 mph69%29.84 "Hg10 mi
1:53 AM82 °FClear.18 mph67%29.84 "Hg10 mi
12:53 AM82 °FClear.18 mph67%29.84 "Hg10 mi
11:53 PM
Aug 31
84 °FClear.20 mph63%29.84 "Hg10 mi
10:53 PM86 °FClear.16 mph59%29.83 "Hg10 mi
9:53 PM88 °FClear.17 mph57%29.82 "Hg10 mi
8:53 PM90 °FSunny.18 mph52%29.81 "Hg10 mi
7:53 PM92 °FSunny.14 mph44%29.80 "Hg10 mi
6:53 PM95 °FSunny.14 mph39%29.81 "Hg10 mi
5:53 PM97 °FSunny.18 mph36%29.82 "Hg10 mi
4:53 PM98 °FPartly sunny.14 mph36%29.83 "Hg10 mi
3:53 PM99 °FPartly sunny.16 mph35%29.84 "Hg10 mi
2:53 PM97 °FPassing clouds.18 mph37%29.85 "Hg10 mi
1:53 PM96 °FSunny.12 mph38%29.88 "Hg10 mi
12:53 PM94 °FSunny.13 mph44%29.90 "Hg10 mi
11:53 AM91 °FSunny.9 mph50%29.92 "Hg10 mi
10:53 AM88 °FSunny.10 mph59%29.94 "Hg10 mi
9:53 AM85 °FSunny.7 mph65%29.94 "Hg10 mi
8:53 AM81 °FSunny.9 mph74%29.93 "Hg10 mi
7:53 AM78 °FClear.7 mph82%29.93 "Hg10 mi
6:53 AM78 °FClear.8 mph79%29.91 "Hg10 mi
Weather by CustomWeather, © 2014

See weather overviewHow to use our weather pages